[[{"header":{"parameterUnit":"m.s-1","parameterCategory":1,"la1":30.2991,"la2":30.254,"lo1":-89.0895,"lo2":-89.0444,"dx":0.0017,"dy":0.0017,"nx":28,"ny":28,"refTime":"2022-12-13T09:00:00:Z","depth":0,"parameterNumber":2,"parameterNumberName":"U-component_of_WINDS"},"data":[0,0,0,0,0,0,0,0,0,0,0,0,0,0,0,0,0,0,0,0,0,0,0,0,0,0,0,0,0,0,0,0,0,0,0,0,0,0,0,0,0,0,0,0,0,0,0,0,0,0,0,0,0,0,0,0,0,0,2.326,2.3258,0,2.3094,2.3092,2.309,2.2959,2.2958,2.2956,2.2955,2.2785,2.2782,2.2778,0,0,0,0,0,0,0,0,0,0,0,0,0,2.3466,2.3463,2.326,2.3258,2.3256,2.3094,2.3092,2.309,2.2959,2.2958,2.2956,2.2955,2.2786,2.2782,2.2778,0,0,0,0,0,0,0,0,0,0,0,0,0,2.3346,2.3462,2.3261,2.3171,2.3162,2.3095,2.3092,2.3089,2.2959,2.2958,2.2956,2.2954,2.2787,2.2782,2.2778,2.2786,0,0,2.2762,2.276,0,0,0,0,0,0,0,0,2.3353,2.3339,2.3187,2.3177,2.3166,2.3045,2.3102,2.2987,2.296,2.3036,2.2955,2.2953,2.2873,2.2861,2.2834,2.2778,2.277,2.2762,2.2759,2.2757,2.2755,0,0,0,0,0,0,0,2.3362,2.3345,2.3194,2.3185,2.3172,2.314,2.3121,2.308,2.2968,2.3029,2.302,2.3002,2.2867,2.2839,2.2829,2.2768,2.2762,2.2758,2.2755,2.2753,2.271,2.2712,0,0,0,0,0,0,2.3384,2.3353,2.32,2.3189,2.3257,2.3138,2.3117,2.3086,2.2968,2.2948,2.3004,2.2996,2.2849,2.2835,2.2823,2.2824,2.2757,2.2752,2.2749,2.2708,2.2711,2.2713,0,0,0,0,0,0,2.3389,2.3371,2.3206,2.3268,2.3245,2.3137,2.3103,2.3084,2.3055,2.2948,2.2927,2.2995,2.2847,2.283,2.2796,2.2816,2.275,2.2745,2.2706,2.2709,2.2712,2.2828,0,0,0,0,0,0,2.3395,2.3374,2.3375,2.3269,2.3242,2.3182,2.3105,2.3082,2.3047,2.3036,2.2935,2.2916,2.2844,2.2804,2.2791,2.2808,2.2741,2.2704,2.2708,2.2711,2.2821,2.2834,2.2845,0,0,0,0,0,2.3403,2.3414,2.3376,2.3358,2.3242,2.3184,2.3168,2.3084,2.3049,2.305,2.2982,2.2919,2.2817,2.2802,2.2786,2.2802,2.2702,2.2706,2.2711,2.2816,2.2832,2.2845,0,0,0,0,0,0,2.3525,2.3399,2.3355,2.3332,2.327,2.3162,2.316,2.3103,2.3049,2.3041,2.294,2.2918,2.2896,2.2845,2.2831,2.2804,2.2751,2.2753,2.2837,2.2851,2.2862,2.2875,2.2737,0,0,0,0,0,2.3549,2.3513,2.3404,2.3395,2.3366,2.3269,2.3241,2.3182,2.3113,2.3086,2.3014,2.295,2.2903,2.2874,2.2825,2.2814,2.279,2.2818,2.2829,2.284,2.2841,2.2832,2.2843,2.2727,2.2727,2.2726,0,0,2.3599,2.3526,2.3508,2.3418,2.3362,2.3327,2.3247,2.3213,2.3186,2.308,2.3044,2.299,2.2912,2.289,2.2876,2.2847,2.2869,2.2845,2.2854,2.285,2.2838,2.2849,2.2859,2.2729,2.2729,2.2728,0,0,2.3671,2.3612,2.3598,2.3545,2.3462,2.3398,2.3395,2.3296,2.3256,2.3218,2.3138,2.3105,2.3026,2.2974,2.2937,2.2993,2.2933,2.298,2.304,2.3032,2.3041,2.3049,2.3068,2.3077,2.2982,2.2982,2.2983,0,2.3743,2.3686,2.3598,2.3569,2.3531,2.3435,2.3421,2.3373,2.3279,2.3256,2.3225,2.3125,2.3065,2.303,2.3044,2.3017,2.3011,2.299,2.3047,2.3054,2.306,2.3077,2.3085,2.2988,2.2988,2.2987,2.2987,0,2.3779,2.3741,2.374,2.3652,2.3615,2.3593,2.3502,2.3475,2.3421,2.336,2.3324,2.3249,2.3184,2.3171,2.3117,2.3128,2.3113,2.3066,2.3011,2.3078,2.3093,2.3099,2.2997,2.2995,2.2993,2.2992,0,0,2.3921,2.3786,2.3787,2.3747,2.365,2.3619,2.3594,2.353,2.3509,2.3448,2.3425,2.3361,2.3318,2.3276,2.3216,2.3209,2.3258,2.3163,2.3159,2.3183,2.3266,2.3301,2.331,2.3219,2.322,2.3221,2.3272,0,2.3978,2.3926,2.3847,2.3822,2.3786,2.3696,2.3674,2.3612,2.3556,2.3518,2.3455,2.3412,2.3358,2.3332,2.3322,2.3255,2.3273,2.325,2.3195,2.3195,2.3217,2.3317,2.3354,2.3406,2.3277,2.3278,2.3279,0,2.4035,2.3981,2.3952,2.3859,2.3841,2.3823,2.3759,2.3724,2.3653,2.3612,2.3567,2.3502,2.3471,2.3422,2.3378,2.3364,2.3338,2.3302,2.3302,2.3292,2.324,2.331,2.342,2.3428,2.3287,2.3286,2.3286,0,2.4142,2.4061,2.4033,2.4001,2.3892,2.3882,2.3836,2.3763,2.373,2.3675,2.3653,2.3595,2.3562,2.3519,2.344,2.3412,2.3405,2.3349,2.337,2.3372,2.3371,2.3371,2.3478,2.3356,2.3356,2.3356,2.3356,0,2.4212,2.4198,2.4079,2.4062,2.4045,2.3955,2.394,2.3885,2.3822,2.3793,2.3712,2.3687,2.3584,2.3547,2.3485,2.3459,2.3445,2.3411,2.3394,2.3417,2.3422,2.3397,2.3391,2.3358,2.3357,2.3357,2.3357,0,2.4326,2.4246,2.421,2.4111,2.4086,2.4077,2.3992,2.3972,2.3912,2.3877,2.3864,2.3769,2.3721,2.3638,2.3567,2.3525,2.351,2.3483,2.3534,2.3524,2.3549,2.3547,2.3642,2.3649,2.3525,2.3527,2.3528,0,2.4376,2.4363,2.4263,2.4238,2.4195,2.4156,2.4123,2.4035,2.4003,2.3923,2.3913,2.386,2.3811,2.374,2.3664,2.361,2.3579,2.3617,2.357,2.3594,2.3579,2.358,2.3578,2.3627,2.3628,2.363,2.3631,0,2.4472,2.4433,2.4388,2.433,2.4293,2.4242,2.4188,2.4172,2.4072,2.4041,2.3992,2.3955,2.3883,2.3831,2.3765,2.3718,2.3658,2.3647,2.3648,2.3671,2.3701,2.3684,2.3562,2.3644,2.3643,2.3642,2.3641,2.3641,2.4554,2.4539,2.4466,2.4419,2.4369,2.4321,2.4298,2.4236,2.4193,2.4127,2.4079,2.4033,2.3964,2.387,2.3827,2.379,2.3762,2.3764,2.3765,2.3766,2.3775,2.3709,2.3778,2.3777,2.3777,2.3776,2.3776,0,2.4645,2.4594,2.4552,2.4479,2.4443,2.4391,2.4329,2.4301,2.4262,2.4203,2.4158,2.4102,2.4052,2.3974,2.3917,2.3902,2.3873,2.389,2.3889,2.388,2.3804,2.3807,2.3915,2.3915,2.3915,2.3915,2.3915,2.3915,2.4688,2.4659,2.4613,2.456,2.4509,2.4464,2.4433,2.4388,2.434,2.4282,2.424,2.4189,2.4122,2.406,2.4012,2.399,2.3973,2.3998,2.3968,2.3898,2.3885,2.3873,2.3876,2.3995,2.3995,2.4046,2.4047,2.4047]},{"header":{"parameterUnit":"m.s-1","parameterCategory":1,"la1":30.2991,"la2":30.254,"lo1":-89.0895,"lo2":-89.0444,"dx":0.0017,"dy":0.0017,"nx":28,"ny":28,"refTime":"2022-12-13T09:00:00:Z","depth":0,"parameterNumber":3,"parameterNumberName":"V-component_of_WINDS"},"data":[0,0,0,0,0,0,0,0,0,0,0,0,0,0,0,0,0,0,0,0,0,0,0,0,0,0,0,0,0,0,0,0,0,0,0,0,0,0,0,0,0,0,0,0,0,0,0,0,0,0,0,0,0,0,0,0,0,0,10.6141,10.6144,0,10.6483,10.6487,10.6491,10.6549,10.6546,10.6543,10.654,10.6876,10.6887,10.6899,0,0,0,0,0,0,0,0,0,0,0,0,0,10.5517,10.5528,10.614,10.6145,10.6149,10.6483,10.6487,10.6492,10.6549,10.6546,10.6542,10.6539,10.6872,10.6886,10.69,0,0,0,0,0,0,0,0,0,0,0,0,0,10.5816,10.5532,10.6139,10.6218,10.6228,10.6482,10.6488,10.6493,10.655,10.6545,10.6541,10.6537,10.6867,10.6884,10.6902,10.7096,0,0,10.6955,10.6962,0,0,0,0,0,0,0,0,10.5799,10.5839,10.6202,10.6213,10.6225,10.6469,10.6391,10.6695,10.6551,10.6427,10.654,10.6535,10.6743,10.677,10.6844,10.7112,10.7126,10.6956,10.6967,10.6975,10.6979,0,0,0,0,0,0,0,10.5778,10.5824,10.6275,10.6207,10.6221,10.623,10.6268,10.6449,10.6605,10.6438,10.6443,10.6483,10.6748,10.6827,10.6852,10.7131,10.6956,10.6971,10.6982,10.6989,10.7571,10.7576,0,0,0,0,0,0,10.5746,10.5807,10.6265,10.6286,10.5998,10.6245,10.6287,10.6395,10.6603,10.6631,10.6487,10.6485,10.6799,10.6831,10.6864,10.7104,10.6974,10.6991,10.7001,10.7566,10.7572,10.7578,0,0,0,0,0,0,10.5732,10.5786,10.6251,10.6048,10.6108,10.626,10.6381,10.6404,10.6483,10.664,10.6667,10.654,10.6797,10.6839,10.7038,10.7116,10.6999,10.7014,10.756,10.7568,10.7575,10.7586,0,0,0,0,0,0,10.5714,10.5781,10.5861,10.605,10.6119,10.6425,10.6386,10.6414,10.6515,10.6515,10.6697,10.6723,10.6797,10.7012,10.7055,10.7138,10.7028,10.7554,10.7564,10.7573,10.7579,10.7593,10.7604,0,0,0,0,0,10.5692,10.5848,10.5865,10.592,10.6223,10.6429,10.6468,10.6555,10.6521,10.6599,10.67,10.6717,10.71,10.7032,10.7081,10.717,10.7549,10.7561,10.7572,10.7573,10.759,10.7604,0,0,0,0,0,0,10.566,10.5874,10.5895,10.6118,10.6256,10.6439,10.6541,10.657,10.6716,10.671,10.6806,10.6846,10.7039,10.7124,10.7044,10.7367,10.7321,10.7343,10.7306,10.7323,10.7335,10.731,10.7043,0,0,0,0,0,10.5679,10.5835,10.6011,10.619,10.6259,10.6388,10.6481,10.6536,10.668,10.6737,10.6852,10.6987,10.7137,10.7234,10.7382,10.7591,10.7629,10.7676,10.7688,10.7698,10.7716,10.7829,10.7851,10.7615,10.7614,10.7614,0,0,10.572,10.5856,10.5948,10.6188,10.6301,10.6454,10.6436,10.66,10.6713,10.676,10.6957,10.7044,10.72,10.7405,10.75,10.7481,10.7789,10.7712,10.7719,10.7732,10.7843,10.7865,10.7885,10.7622,10.7621,10.762,0,0,10.5873,10.5994,10.6156,10.6269,10.6442,10.6526,10.6564,10.6744,10.6806,10.7005,10.7043,10.7174,10.7433,10.7542,10.7631,10.7821,10.7841,10.7866,10.7932,10.8041,10.806,10.8077,10.8143,10.8166,10.7883,10.7883,10.7883,0,10.5901,10.614,10.6233,10.6397,10.6498,10.6552,10.6713,10.6817,10.7026,10.7093,10.7069,10.7394,10.7502,10.7731,10.7778,10.7848,10.7891,10.7847,10.8051,10.8069,10.8086,10.815,10.8174,10.7885,10.7884,10.7884,10.7884,0,10.6164,10.6328,10.6437,10.6643,10.6757,10.6917,10.7029,10.7132,10.7175,10.726,10.7459,10.7591,10.7765,10.7823,10.7865,10.8057,10.804,10.8032,10.7988,10.8109,10.817,10.8196,10.7887,10.7887,10.7886,10.7886,0,0,10.6309,10.6565,10.6603,10.6696,10.6889,10.7014,10.7173,10.7349,10.7434,10.7574,10.7708,10.7924,10.7918,10.8019,10.8073,10.8169,10.8309,10.815,10.8155,10.8174,10.8524,10.8529,10.8556,10.8322,10.8327,10.8331,10.8511,0,10.6485,10.678,10.6866,10.7111,10.7261,10.7312,10.745,10.758,10.7662,10.7796,10.7884,10.8036,10.8017,10.8078,10.8175,10.8271,10.838,10.8259,10.8443,10.8449,10.8404,10.8589,10.8595,10.8758,10.8535,10.854,10.8543,0,10.673,10.6881,10.7142,10.7313,10.7379,10.7503,10.7668,10.7798,10.7943,10.7995,10.8107,10.8153,10.8315,10.8261,10.8484,10.84,10.8479,10.8537,10.8545,10.8566,10.8503,10.8613,10.8812,10.8836,10.8582,10.8579,10.8576,0,10.6808,10.7075,10.7266,10.7343,10.7548,10.7634,10.7722,10.7864,10.7962,10.8104,10.8168,10.8324,10.841,10.8528,10.8612,10.8566,10.8826,10.878,10.8871,10.8869,10.8924,10.892,10.9138,10.8975,10.8975,10.8974,10.8974,0,10.6996,10.7153,10.7304,10.7421,10.7596,10.7691,10.786,10.7949,10.8074,10.8205,10.8256,10.8376,10.8481,10.8613,10.8679,10.8851,10.8889,10.8933,10.8948,10.8929,10.8923,10.8982,10.8973,10.8981,10.898,10.8978,10.8977,0,10.7114,10.7222,10.7432,10.7609,10.7657,10.7778,10.7927,10.8039,10.8121,10.8286,10.8329,10.8458,10.8616,10.8712,10.8911,10.8955,10.9145,10.9156,10.9098,10.9105,10.919,10.918,10.9455,10.9494,10.9304,10.9306,10.9308,0,10.7226,10.7349,10.754,10.7634,10.7724,10.7874,10.7975,10.8071,10.8173,10.8346,10.8436,10.8598,10.8734,10.8983,10.909,10.9242,10.9256,10.9342,10.9279,10.9255,10.9256,10.9248,10.9259,10.9352,10.9354,10.9355,10.9356,0,10.7414,10.7461,10.7609,10.7774,10.7895,10.8028,10.816,10.8232,10.8349,10.846,10.8625,10.873,10.8935,10.9094,10.9254,10.9338,10.9365,10.9375,10.9404,10.9385,10.9346,10.9367,10.9126,10.9369,10.9367,10.9366,10.9366,10.9365,10.7533,10.7643,10.7795,10.7956,10.8066,10.8188,10.8302,10.84,10.8541,10.8719,10.8764,10.8936,10.9073,10.9292,10.9379,10.9511,10.9498,10.9539,10.955,10.9559,10.9561,10.9325,10.954,10.954,10.954,10.954,10.954,0,10.7722,10.7822,10.7969,10.8155,10.828,10.8299,10.8446,10.8547,10.87,10.8828,10.8961,10.9148,10.9301,10.942,10.9577,10.9659,10.9675,10.9697,10.9691,10.971,10.9564,10.9524,10.9681,10.9681,10.9681,10.9681,10.9681,10.9681,10.7836,10.8024,10.8087,10.8328,10.8425,10.8598,10.8679,10.879,10.8893,10.9101,10.9231,10.9309,10.9432,10.9597,10.9737,10.9768,10.9822,10.9841,10.9873,10.9735,10.972,10.9705,10.9668,10.9852,10.9853,11.0008,11.0009,11.001]}]]